Retour au catalogue

STARLINK-35975

ActifCommunicationsVLEO
NORAD 66525·PAYLOAD·🇺🇸 United States

Lancé Nov 19, 2025 depuis Cape Canaveral Space Force Station

Loading…

Prochains Passages (prochaines 24 heures)

TLE

FraisSource: CelesTrak SupGP

Époque: Sep 14, 2026, 23:10 UTC

1 66525C 25265K   26257.96576389  .00031530  00000+0  11420-2 0  2577
2 66525  43.0000 288.9662 0001426 268.2573   5.2003 15.27564158    15

Suivez STARLINK-35975 en temps réel avec AllMySat

Download on the App Store